Location: Fort Wayne
(41.1310°N, 85.1290°W)
Time: 10:49:55
(UTC-05:00)

Cosmos 2219 Rocket - Visible Passes

Search period start: 21 December 2014 00:00
Search period end: 31 December 2014 00:00
Orbit: 827 x 848 km, 71.0° (Epoch: 20 December)

Date Brightness Start Highest point End Pass type
(mag) Time Alt. Az. Time Alt. Az. Time Alt. Az.
21 Dec 4.3 06:14:10 10° SSE 06:18:58 29° ESE 06:23:48 10° NE visible
21 Dec 5.7 18:38:16 10° W 18:39:15 10° W 18:40:13 10° WSW visible
22 Dec 4.3 05:58:04 10° SSE 06:02:44 27° ESE 06:07:25 10° NE visible
22 Dec 5.5 18:21:13 10° WNW 18:23:02 12° W 18:24:51 10° WSW visible
23 Dec 4.4 05:41:59 10° SSE 05:46:30 25° ESE 05:51:02 10° NE visible
23 Dec 2.5 07:24:43 10° SW 07:30:08 46° WNW 07:35:36 10° NNE visible
23 Dec 5.4 18:04:28 10° WNW 18:06:49 13° W 18:09:10 10° WSW visible
24 Dec 4.5 05:25:55 10° SSE 05:30:16 23° E 05:34:38 10° NE visible
24 Dec 2.4 07:08:22 10° SW 07:13:51 50° WNW 07:19:22 10° NNE visible
24 Dec 5.3 17:47:50 10° WNW 17:50:36 14° W 17:53:22 10° SW visible
25 Dec 4.5 05:09:52 10° SSE 05:14:02 21° E 05:18:13 10° NE visible
25 Dec 2.3 06:52:01 10° SW 06:57:33 53° WNW 07:03:07 10° NNE visible
26 Dec 4.6 04:53:51 10° SE 04:57:49 20° E 05:01:47 10° NE visible
26 Dec 2.2 06:35:41 10° SW 06:41:15 58° WNW 06:46:52 10° NNE visible
27 Dec 4.7 04:37:51 10° SE 04:41:35 18° E 04:45:19 10° ENE visible
27 Dec 2.1 06:19:22 10° SW 06:24:58 62° WNW 06:30:36 10° NNE visible
28 Dec 4.7 04:21:53 10° SE 04:25:22 17° E 04:28:50 10° ENE visible
28 Dec 2.1 06:03:03 10° SSW 06:08:41 67° WNW 06:14:21 10° NNE visible
29 Dec 4.7 04:08:41 15° ESE 04:09:08 15° E 04:12:19 10° ENE visible
29 Dec 2.0 05:50:36 44° SW 05:52:24 72° WNW 05:58:05 10° NNE visible
30 Dec 5.0 03:54:52 12° ENE 03:54:52 12° ENE 03:55:45 10° ENE visible
30 Dec 2.1 05:36:42 69° NNW 05:36:42 69° NNW 05:41:49 10° NNE visible
30 Dec 3.8 07:18:32 10° WNW 07:21:03 13° NW 07:23:46 10° NNW visible
